Regional Weather Roundup
Issued by NWS

Home | Current Version | Previous Version | Text Only | Print | Product List | Glossary Off
Versions: 1 2 3 4 5 6 7 8 9 10 11 12 13 14 15 16 17 18 19 20 21 22 23 24 25 26 27 28 29 30 31 32 33 34 35 36 37 38 39 40 41 42 43 44 45 46 47 48 49 50

000
ASUS43 KMPX 011210
RWRMN
WEATHER ROUNDUP FOR MINNESOTA
NATIONAL WEATHER SERVICE TWIN CITIES/CHANHASSEN MN
700 AM CDT MON SEP 01 2014


NOTE: "FAIR" INDICATES FEW OR NO CLOUDS BELOW 12,000 FEET WITH NO
SIGNIFICANT WEATHER AND/OR OBSTRUCTIONS TO VISIBILITY. N/A MEANS
CURRENT SKY AND/OR WEATHER CONDITIONS ARE NOT AVAILABLE.

MNZ060>063-068>070-011300-
   Twin Cities Metro

CITY           SKY/WX    TMP DP  RH WIND       PRES   REMARKS
TWIN CITIES    MOCLDY    65  64  97 NW6       29.64R
6HR MIN TEMP:  65; 6HR MAX TEMP:  66; 6HR PCP:  0.17;

ST PAUL        CLOUDY    65  64  97 W8        29.64S
CRYSTAL        MOCLDY    67  62  84 NW9       29.62F
BLAINE         MOCLDY    66  64  94 W9        29.64S
LAKEVILLE      CLOUDY    63  63 100 CALM      29.65R
EDEN PRAIRIE   LGT RAIN  66  64  93 N8        29.61F
6HR MIN TEMP:  65; 6HR MAX TEMP:  66; 6HR PCP:  0.15;

SOUTH ST PAUL  MOCLDY    65  64  93 W6        29.65R
LAKE ELMO      MOCLDY    64  63  94 W7        29.65R
$$
MNZ001>005-007-008-013>017-022>024-027-028-011300-
   Northwest Minnesota

CITY           SKY/WX    TMP DP  RH WIND       PRES   REMARKS
BEMIDJI        CLOUDY    57  56  97 NW6       29.67R
HALLOCK        FOG       48  48 100 S5        29.67R VSB 1/4
ROSEAU         MOCLDY    57  52  82 W6        29.65R
WARROAD        CLOUDY    57  54  88 W6        29.64S
THIEF RVR FALL CLOUDY    57  55  94 NW10      29.68R
CROOKSTON      FOG       52  50  93 CALM      29.70R VSB 1/2
FOSSTON        CLOUDY    55  55 100 W6        29.69R
DETROIT LAKES  CLOUDY    57  55  94 NW10      29.71R
MOORHEAD       PTCLDY    54  54 100 W3        29.71R
PARK RAPIDS    MOCLDY    56  55  97 NW7       29.67R
MAHNOMEN       CLOUDY    56  56 100 NW6       29.70R
$$
MNZ006-009>011-018-025>026-011300-
   North Central Minnesota

CITY           SKY/WX    TMP DP  RH WIND       PRES   REMARKS
BAUDETTE       CLOUDY    58  56  93 VRB5      29.61R
FLAG ISLAND    CLOUDY    61  57  88 W14       29.60R
INTL FALLS     CLOUDY    58  57  97 W8        29.59R
6HR MIN TEMP:  58; 6HR MAX TEMP:  61; 6HR PCP: TRACE;

WASKISH        CLOUDY    59  57  94 W5        29.64R
BIG FORK       CLOUDY    59  55  88 W3        29.63R
LONGVILLE      PTCLDY    57  57 100 CALM      29.65R
GRAND RAPIDS   CLOUDY    61  57  88 NW10      29.64R
CRANE LAKE     CLOUDY    57  57 100 SW5       29.59R FOG
ORR            CLOUDY    57  54  88 W5        29.58R
COOK           CLOUDY    57  55  94 W7        29.60R
WALKER         CLOUDY    56  55  96 W5        29.66R
$$
MNZ012-019>021-037-011300-
   Northeast Minnesota

CITY           SKY/WX    TMP DP  RH WIND       PRES   REMARKS
DULUTH         CLOUDY    63  60  90 NW8       29.61R
6HR MIN TEMP:  63; 6HR MAX TEMP:  65; 6HR PCP:  0.25;

ELY            CLOUDY    59  57  94 W5        29.57R
HIBBING        CLOUDY    60  57  89 W7        29.62R
EVELETH        CLOUDY    59  55  88 W8        29.62R
DULUTH HARBOR  DRIZZLE   64  63  94 SW6       29.59R
TWO HARBORS    LGT RAIN  61  55  82 W5        29.57R
SILVER BAY     LGT RAIN  61  61 100 CALM      29.56R
GRAND MARAIS     N/A     62  61  96 CALM      29.52R
G MARAIS ARPRT LGT RAIN  61  57  88 W5        29.57R
$$
MNZ029>031-032-039>041-046>048-054>057-064-011300-
   West Central Minnesota

CITY           SKY/WX    TMP DP  RH WIND       PRES   REMARKS
FERGUS FALLS   PTCLDY    54  54 100 NW7       29.71R
WHEATON        PTCLDY    55  54  94 W6        29.73R
MORRIS         MOCLDY    59  57  94 NW10      29.70R
ALEXANDRIA     MOCLDY    61  59  93 NW7       29.69S
ELBOW LAKE     FAIR      55  55  97 NW8       29.70R
WADENA         MOCLDY    57  55  94 W5        29.68R
GLENWOOD       MOCLDY    61  61 100 W7        29.69R FOG
APPLETON       CLOUDY    63  61  94 NW7       29.69R
BENSON         CLOUDY    61  59  94 N5        29.69R
ORTONVILLE     MOCLDY    63  57  82 NW7       29.71R
MADISON        MOCLDY    64  63  94 NW7       29.70R
WILLMAR        FAIR      63  61  94 NW7       29.69S
$$
MNZ033>034-036-042>043-049>051-058-059-011300-
   Central Minnesota

CITY           SKY/WX    TMP DP  RH WIND       PRES   REMARKS
ST CLOUD       CLOUDY    66  63  90 NW7       29.65S
6HR MIN TEMP:  66; 6HR MAX TEMP:  68; 6HR PCP:  0.29;

SAUK CENTRE    FAIR      63  61  94 CALM      29.67S
PAYNESVILLE    CLOUDY    59  59 100 CALM      29.68R
AITKIN         MOCLDY    63  57  82 CALM      29.64R
PINE RIVER     PTCLDY    59  59 100 NW5       29.69S
BRAINERD       MOCLDY    61  59  93 CALM      29.67R
STAPLES        MOCLDY    57  57 100 NW5       29.67R
LONG PRAIRIE   FAIR      61  59  94 W5        29.68R
LITTLE FALLS   MOCLDY    61  59  94 CALM      29.67R
LITCHFIELD     CLOUDY    64  64 100 NW7       29.67S
BUFFALO        LGT RAIN  65  62  91 W5        29.66S
MAPLE LAKE     CLOUDY    65  64  97 W3        29.67R
$$
MNZ037-044-045-052-053-011300-
   East Central Minnesota

CITY           SKY/WX    TMP DP  RH WIND       PRES   REMARKS
PRINCETON      CLOUDY    64  63  94 W3        29.64F
MORA           LGT RAIN  59  59 100 NW5       29.65F
CAMBRIDGE      DRIZZLE   64  57  77 W5        29.62S
RUSH CITY      LGT RAIN  63  62  96 CALM      29.63S
MOOSE LAKE     LGT RAIN  63  61  94 CALM      29.61R
HINCKLEY       LGT RAIN  63  63 100 SW7       29.64R
CLOQUET        CLOUDY    63  61  94 W8        29.61F
MCGREGOR       MOCLDY    63  61  94 W5        29.65R
$$
MNZ071>073-080-081-089-090-097-098-011300-
   Southwest Minnesota

CITY           SKY/WX    TMP DP  RH WIND       PRES   REMARKS
MONTEVIDEO     MOCLDY    63  61  94 NW5       29.70R FOG
GRANITE FALLS  MOCLDY    59  59  99 CALM      29.70S
CANBY          MOCLDY    61  60  94 W7        29.72S
MARSHALL       MOCLDY    61  57  88 NW6       29.69S
REDWOOD FALLS  MOCLDY    63  62  97 NW9       29.67R
OLIVIA         CLOUDY    63  61  94 NW5       29.67S
PIPESTONE      MOCLDY    61  57  88 NW5       29.74R
WINDOM         CLOUDY    63  61  94 CALM      29.70S
WORTHINGTON    MOCLDY    63  61  94 NW3       29.72S
JACKSON        MOCLDY    63  59  88 NW6       29.71S
TRACY          MOCLDY    62  61  96 CALM      29.71R
SLAYTON        MOCLDY    60  60  98 CALM      29.73R
$$
MNZ065>067-074>077-082>085-091>093-011300-
   South Central Minnesota

CITY           SKY/WX    TMP DP  RH WIND       PRES   REMARKS
MANKATO        MOCLDY    64  59  82 W6        29.66S
NEW ULM        MOCLDY    61  61 100 SW5       29.67R
ST JAMES       PTCLDY    64  63  94 SW6       29.69S
FAIRMONT       PTCLDY    64  59  82 NW3       29.68S
GLENCOE        CLOUDY    64  61  90 W5        29.64F
FARIBAULT      CLOUDY    66  63  88 CALM      29.66S
OWATONNA       CLOUDY    64  63  94 W6        29.67S
WASECA         CLOUDY    61  57  88 W3        29.68S FOG
ALBERT LEA     CLOUDY    66  64  94 W5        29.68R
$$
MNZ078>079-086>088-094>096-011300-
   Southeast Minnesota

CITY           SKY/WX    TMP DP  RH WIND       PRES   REMARKS
ROCHESTER      LGT RAIN  64  62  93 SW9       29.69R
6HR MIN TEMP:  63; 6HR MAX TEMP:  65; 6HR PCP:  1.15;

RED WING       CLOUDY    66  64  94 W5        29.66R
STANTON        CLOUDY    66  63  90 W3        29.65R
DODGE CENTER   RAIN      64  63  94 W5        29.68R
WINONA         RAIN      66  63  88 SW8G16    29.67S
AUSTIN         DRIZZLE   64  63  94 SW6       29.68R
PRESTON        CLOUDY    63  63 100 SW3       29.69S
$$
ABBREVIATIONS USED IN REMARKS
   TC - TEMPERATURES IN CELSIUS
  WCI - WIND CHILL INDEX
   HX - HEAT INDEX
  VSB - VISIBILITY
$$



USA.gov is the U.S. government's official web portal to all federal, state and local government web resources and services.